Starlink 4646

operational
NORAD ID: 53737 Int'l Des: 2022-107 Owner: SPXS Country: US Constellation: starlink
LEOCIRCULAR

About Starlink 4646

Description loading...

Live Position

Loading 3D Globe...

Upcoming Passes

Altitude History

Altitude vs Time

uPlot chart will show altitude changes over time

Two-Line Element Set

1 53737U 22107AP 25354.00002315 .00132111 00000-0 12815-2 0 9995
2 53737 53.1921 213.4378 0004053 198.8271 252.4994 15.65448246 5908
Epoch: Dec 20, 2025 • Age: 20 hours

Current Status

Altitude 373.3 km
Velocity 7.69 km/s
Sub-Earth Point -17.20°S, 7.13°E
Launch Date Sep 5, 2022
Age 3.2 years
Type internet

Technical Details

Classification Payload
Mass 305.00 kg
Dry Mass 290.00 kg
Total Mass 305.00 kg
Length 0.20 m
Diameter 2.80 m
Span 9.00 m
Shape Box + pan
Manufacturer SPXS
Bus Type Starlink
Phase Status In Orbit
Owner/State SPXS/US

Large Constellations

Loading constellations...